EN

Hourly Weather Kzyl-Mechet

Today, 5 August, Thursday

Time Temperature Precipitation Wind Pressure Humidity
00:00 +26°C° 0 mm 4 mps 747 mmHg 58%
01:00 +26°C° 0 mm 4 mps 747 mmHg 60%
02:00 +25°C° 0 mm 4 mps 747 mmHg 63%
03:00 +25°C° 0 mm 3 mps 747 mmHg 63%
04:00 +25°C° 0 mm 3 mps 747 mmHg 64%
05:00 +25°C° 0 mm 4 mps 748 mmHg 65%
06:00 +25°C° 0 mm 4 mps 748 mmHg 66%
07:00 +26°C° 0 mm 4 mps 748 mmHg 61%
08:00 +27°C° 0 mm 5 mps 748 mmHg 55%
09:00 +28°C° 0 mm 6 mps 748 mmHg 51%
10:00 +29°C° 0 mm 6 mps 748 mmHg 47%
11:00 +30°C° 0 mm 6 mps 748 mmHg 43%
12:00 +30°C° 0 mm 6 mps 748 mmHg 39%
13:00 +32°C° 0 mm 6 mps 748 mmHg 35%
14:00 +32°C° 0 mm 6 mps 748 mmHg 32%
15:00 +33°C° 0 mm 5 mps 748 mmHg 28%
16:00 +32°C° 0 mm 5 mps 748 mmHg 27%
17:00 +30°C° 0 mm 5 mps 748 mmHg 27%
18:00 +30°C° 0 mm 4 mps 748 mmHg 26%
19:00 +28°C° 0 mm 4 mps 749 mmHg 32%
20:00 +26°C° 0 mm 4 mps 749 mmHg 37%
21:00 +22°C° 0 mm 3 mps 749 mmHg 43%
22:00 +22°C° 0 mm 3 mps 749 mmHg 45%
23:00 +21°C° 0 mm 3 mps 749 mmHg 47%

Tomorrow, 6 August, Friday

Time Temperature Precipitation Wind Pressure Humidity
00:00 +20°C° 0 mm 3 mps 749 mmHg 50%
01:00 +19°C° 0 mm 3 mps 749 mmHg 54%
02:00 +19°C° 0 mm 3 mps 749 mmHg 59%
03:00 +18°C° 0 mm 3 mps 749 mmHg 63%
04:00 +19°C° 0 mm 3 mps 750 mmHg 61%
05:00 +19°C° 0 mm 4 mps 750 mmHg 58%
06:00 +20°C° 0 mm 4 mps 750 mmHg 56%
07:00 +22°C° 0 mm 4 mps 750 mmHg 49%
08:00 +25°C° 0 mm 4 mps 750 mmHg 42%
09:00 +27°C° 0 mm 5 mps 750 mmHg 35%
10:00 +28°C° 0 mm 4 mps 750 mmHg 32%
11:00 +29°C° 0 mm 4 mps 750 mmHg 29%
12:00 +30°C° 0 mm 4 mps 750 mmHg 26%
13:00 +30°C° 0 mm 5 mps 750 mmHg 25%
14:00 +32°C° 0 mm 5 mps 750 mmHg 24%
15:00 +32°C° 0 mm 5 mps 749 mmHg 22%
16:00 +30°C° 0 mm 5 mps 749 mmHg 23%
17:00 +30°C° 0 mm 4 mps 749 mmHg 24%
18:00 +29°C° 0 mm 4 mps 749 mmHg 25%
19:00 +27°C° 0 mm 4 mps 750 mmHg 28%
20:00 +25°C° 0 mm 3 mps 750 mmHg 32%
21:00 +21°C° 0 mm 3 mps 750 mmHg 36%
22:00 +21°C° 0 mm 3 mps 750 mmHg 38%
23:00 +20°C° 0 mm 2 mps 750 mmHg 40%

Day after tomorrow, 7 August, Saturday

Time Temperature Precipitation Wind Pressure Humidity
00:00 +19°C° 0 mm 2 mps 750 mmHg 43%
01:00 +19°C° 0 mm 2 mps 751 mmHg 45%
02:00 +18°C° 0 mm 2 mps 751 mmHg 47%
03:00 +17°C° 0 mm 3 mps 751 mmHg 49%
04:00 +18°C° 0 mm 3 mps 751 mmHg 46%
05:00 +19°C° 0 mm 3 mps 751 mmHg 43%
06:00 +20°C° 0 mm 3 mps 752 mmHg 40%
07:00 +24°C° 0 mm 3 mps 752 mmHg 35%
08:00 +26°C° 0 mm 3 mps 752 mmHg 30%
09:00 +28°C° 0 mm 3 mps 752 mmHg 26%
10:00 +29°C° 0 mm 3 mps 752 mmHg 24%
11:00 +30°C° 0 mm 3 mps 751 mmHg 22%
12:00 +31°C° 0 mm 3 mps 751 mmHg 20%
13:00 +31°C° 0 mm 3 mps 751 mmHg 20%
14:00 +33°C° 0 mm 3 mps 751 mmHg 19%
15:00 +33°C° 0 mm 4 mps 751 mmHg 19%
16:00 +33°C° 0 mm 4 mps 751 mmHg 21%
17:00 +32°C° 0 mm 4 mps 751 mmHg 23%
18:00 +30°C° 0 mm 4 mps 751 mmHg 25%
19:00 +28°C° 0 mm 3 mps 751 mmHg 29%
20:00 +26°C° 0 mm 3 mps 751 mmHg 32%
21:00 +24°C° 0 mm 2 mps 752 mmHg 36%
22:00 +23°C° 0 mm 2 mps 752 mmHg 38%
23:00 +23°C° 0 mm 2 mps 752 mmHg 40%

8 August, Sunday

Time Temperature Precipitation Wind Pressure Humidity
00:00 +21°C° 0 mm 2 mps 752 mmHg 43%
01:00 +20°C° 0 mm 2 mps 752 mmHg 43%
02:00 +20°C° 0 mm 2 mps 753 mmHg 43%
03:00 +19°C° 0 mm 2 mps 753 mmHg 44%
04:00 +20°C° 0 mm 2 mps 753 mmHg 41%
05:00 +21°C° 0 mm 3 mps 753 mmHg 39%
06:00 +22°C° 0 mm 3 mps 753 mmHg 36%
07:00 +25°C° 0 mm 3 mps 753 mmHg 34%
08:00 +27°C° 0 mm 4 mps 753 mmHg 32%
09:00 +29°C° 0 mm 4 mps 754 mmHg 29%
10:00 +30°C° 0 mm 4 mps 753 mmHg 28%
11:00 +32°C° 0 mm 4 mps 753 mmHg 28%
12:00 +33°C° 0 mm 4 mps 753 mmHg 27%
13:00 +33°C° 0 mm 5 mps 753 mmHg 27%
14:00 +34°C° 0 mm 5 mps 753 mmHg 27%
15:00 +34°C° 0 mm 5 mps 753 mmHg 26%
16:00 +33°C° 0 mm 5 mps 753 mmHg 27%
17:00 +33°C° 0 mm 5 mps 753 mmHg 27%
18:00 +32°C° 0 mm 5 mps 753 mmHg 28%
19:00 +29°C° 0 mm 4 mps 753 mmHg 30%
20:00 +27°C° 0 mm 3 mps 753 mmHg 31%
21:00 +24°C° 0 mm 3 mps 753 mmHg 33%
22:00 +24°C° 0 mm 3 mps 753 mmHg 33%
23:00 +22°C° 0 mm 3 mps 754 mmHg 33%

9 August, Monday

Time Temperature Precipitation Wind Pressure Humidity
00:00 +21°C° 0 mm 3 mps 754 mmHg 33%
01:00 +20°C° 0 mm 2 mps 754 mmHg 34%
02:00 +20°C° 0 mm 2 mps 754 mmHg 34%
03:00 +19°C° 0 mm 2 mps 754 mmHg 35%
04:00 +20°C° 0 mm 2 mps 754 mmHg 36%
05:00 +21°C° 0 mm 2 mps 754 mmHg 36%
06:00 +23°C° 0 mm 2 mps 755 mmHg 37%
07:00 +24°C° 0 mm 3 mps 755 mmHg 35%
08:00 +26°C° 0 mm 3 mps 755 mmHg 34%
09:00 +27°C° 0 mm 3 mps 755 mmHg 32%
10:00 +29°C° 0 mm 3 mps 754 mmHg 29%
11:00 +30°C° 0 mm 4 mps 754 mmHg 25%
12:00 +33°C° 0 mm 4 mps 754 mmHg 22%
13:00 +33°C° 0 mm 4 mps 754 mmHg 22%
14:00 +33°C° 0 mm 4 mps 754 mmHg 22%
15:00 +34°C° 0 mm 4 mps 754 mmHg 22%
16:00 +33°C° 0 mm 4 mps 753 mmHg 24%
17:00 +32°C° 0 mm 4 mps 753 mmHg 26%
18:00 +30°C° 0 mm 4 mps 753 mmHg 28%
19:00 +28°C° 0 mm 3 mps 753 mmHg 32%
20:00 +27°C° 0 mm 3 mps 753 mmHg 36%
21:00 +25°C° 0 mm 2 mps 753 mmHg 40%
22:00 +24°C° 0 mm 2 mps 753 mmHg 42%
23:00 +23°C° 0 mm 2 mps 753 mmHg 43%

10 August, Tuesday

Time Temperature Precipitation Wind Pressure Humidity
00:00 +23°C° 0 mm 2 mps 753 mmHg 44%
01:00 +21°C° 0 mm 2 mps 753 mmHg 44%
02:00 +21°C° 0 mm 2 mps 753 mmHg 44%
03:00 +21°C° 0 mm 2 mps 753 mmHg 44%
04:00 +23°C° 0 mm 2 mps 753 mmHg 41%
05:00 +24°C° 0 mm 2 mps 753 mmHg 38%
06:00 +25°C° 0 mm 2 mps 753 mmHg 36%
07:00 +27°C° 0 mm 3 mps 753 mmHg 31%
08:00 +29°C° 0 mm 3 mps 753 mmHg 27%
09:00 +33°C° 0 mm 3 mps 752 mmHg 23%
10:00 +34°C° 0 mm 3 mps 752 mmHg 21%
11:00 +35°C° 0 mm 3 mps 752 mmHg 20%
12:00 +36°C° 0 mm 3 mps 751 mmHg 19%
13:00 +36°C° 0 mm 3 mps 751 mmHg 18%
14:00 +37°C° 0 mm 3 mps 750 mmHg 18%
15:00 +37°C° 0 mm 2 mps 750 mmHg 17%
16:00 +36°C° 0 mm 2 mps 750 mmHg 18%
17:00 +35°C° 0 mm 2 mps 749 mmHg 19%
18:00 +34°C° 0 mm 2 mps 749 mmHg 21%
19:00 +32°C° 0 mm 2 mps 749 mmHg 22%
20:00 +30°C° 0 mm 2 mps 749 mmHg 24%
21:00 +29°C° 0 mm 2 mps 749 mmHg 26%
22:00 +29°C° 0 mm 1 mps 749 mmHg 26%
23:00 +29°C° 0 mm 1 mps 748 mmHg 27%
Show more